| time (UTC) | temp F | wind direction | speed knots | gust knots | rain 1hr in | rain 24hr in | rain mn in | humidity % | barometer mb |
| 20260504160204 | 59 | 68 | 0.0 | 2.6 | 0.00 | 0.00 | 0.00 | 31 | 1007.0 |
| 20260504150703 | 60 | 68 | 4.3 | 4.3 | 0.00 | 0.00 | 0.00 | 26 | 1006.0 |
| 20260504150204 | 60 | 68 | 4.3 | 4.3 | 0.00 | 0.00 | 0.00 | 26 | 1006.0 |
| 20260504141203 | 61 | 112 | 2.6 | 5.2 | 0.00 | 0.00 | 0.00 | 24 | 1004.8 |
| 20260504140204 | 61 | 68 | 4.3 | 6.1 | 0.00 | 0.00 | 0.00 | 24 | 1005.0 |
| 20260504130704 | 63 | 135 | 0.9 | 6.1 | 0.00 | 0.00 | 0.00 | 24 | 1003.0 |
| 20260504130204 | 63 | 135 | 2.6 | 5.2 | 0.00 | 0.00 | 0.00 | 24 | 1003.0 |
| 20260504120204 | 64 | 176 | 4.3 | 7.0 | 0.00 | 0.00 | 0.00 | 23 | 1002.0 |
| 20260504110703 | 67 | 296 | 3.5 | 6.1 | 0.00 | 0.00 | 0.00 | 20 | 999.0 |
| 20260504110204 | 67 | 225 | 2.6 | 5.2 | 0.00 | 0.00 | 0.00 | 20 | 999.0 |
| 20260504100204 | 68 | 246 | 7.8 | 10.4 | 0.00 | 0.00 | 0.00 | 17 | 997.0 |
| 20260504081703 | 72 | 215 | 8.7 | 13.0 | 0.00 | 0.00 | 0.00 | 16 | 993.0 |
| 20260504081203 | 72 | 202 | 8.7 | 6.1 | 0.00 | 0.00 | 0.00 | 16 | 993.0 |
| 20260504080704 | 72 | 202 | 8.7 | 6.1 | 0.00 | 0.00 | 0.00 | 16 | 993.0 |
| 20260504080204 | 72 | 202 | 8.7 | 11.3 | 0.00 | 0.00 | 0.00 | 16 | 993.0 |
| 20260504070204 | 75 | 292 | 6.1 | 7.0 | 0.00 | 0.00 | 0.00 | 13 | 994.0 |
| 20260504050703 | 79 | 202 | 6.1 | 11.3 | 0.00 | 0.00 | 0.00 | 15 | 993.0 |
| 20260504050204 | 79 | 222 | 7.0 | 7.8 | 0.00 | 0.00 | 0.00 | 15 | 993.0 |
| 20260504045705 | 78 | 202 | 6.1 | 10.4 | 0.00 | 0.00 | 0.00 | 15 | 993.0 |
| 20260504045204 | 78 | 90 | 6.1 | 10.4 | 0.00 | 0.00 | 0.00 | 15 | 993.0 |
| 20260504044704 | 79 | 90 | 6.1 | 10.4 | 0.00 | 0.00 | 0.00 | 15 | 993.0 |
| 20260504043703 | 80 | 225 | 6.1 | 6.1 | 0.00 | 0.00 | 0.00 | 15 | 992.0 |
| 20260504043204 | 79 | 225 | 7.8 | 6.1 | 0.00 | 0.00 | 0.00 | 15 | 992.0 |
| 20260504042703 | 79 | 225 | 7.8 | 13.9 | 0.00 | 0.00 | 0.00 | 15 | 992.0 |
| 20260504042205 | 79 | 202 | 7.8 | 13.0 | 0.00 | 0.00 | 0.00 | 15 | 992.0 |
| 20260504041203 | 80 | 158 | 5.2 | 5.2 | 0.00 | 0.00 | 0.00 | 17 | 992.0 |
| 20260504040704 | 80 | 229 | 8.7 | 7.8 | 0.00 | 0.00 | 0.00 | 17 | 992.0 |
| 20260504035704 | 80 | 292 | 7.0 | 7.8 | 0.00 | 0.00 | 0.00 | 17 | 992.8 |
| 20260504035204 | 80 | 292 | 7.0 | 7.8 | 0.00 | 0.00 | 0.00 | 17 | 993.0 |
| 20260504034704 | 80 | 292 | 7.0 | 7.8 | 0.00 | 0.00 | 0.00 | 20 | 993.0 |
| 20260504033704 | 79 | 292 | 7.0 | 7.8 | 0.00 | 0.00 | 0.00 | 20 | 993.0 |
| 20260504033204 | 79 | 292 | 7.0 | 7.8 | 0.00 | 0.00 | 0.00 | 20 | 993.0 |
| 20260504031705 | 79 | 248 | 6.1 | 11.3 | 0.00 | 0.00 | 0.00 | 20 | 993.0 |
| 20260504031204 | 79 | 248 | 6.1 | 11.3 | 0.00 | 0.00 | 0.00 | 20 | 993.0 |
| 20260504030704 | 79 | 248 | 6.1 | 11.3 | 0.00 | 0.00 | 0.00 | 20 | 993.0 |
| 20260504025704 | 80 | 248 | 6.1 | 11.3 | 0.00 | 0.00 | 0.00 | 20 | 993.8 |
| 20260504024704 | 79 | 248 | 6.1 | 11.3 | 0.00 | 0.00 | 0.00 | 20 | 994.0 |
| 20260504024204 | 79 | 202 | 5.2 | 11.3 | 0.00 | 0.00 | 0.00 | 20 | 994.0 |
| 20260504023703 | 78 | 202 | 5.2 | 11.3 | 0.00 | 0.00 | 0.00 | 20 | 994.0 |
| 20260504023204 | 78 | 202 | 5.2 | 11.3 | 0.00 | 0.00 | 0.00 | 20 | 994.0 |
| 20260504022703 | 78 | 202 | 5.2 | 11.3 | 0.00 | 0.00 | 0.00 | 20 | 994.0 |
| 20260504022204 | 78 | 202 | 5.2 | 11.3 | 0.00 | 0.00 | 0.00 | 21 | 994.0 |
| 20260504021704 | 78 | 202 | 5.2 | 11.3 | 0.00 | 0.00 | 0.00 | 21 | 994.0 |
| 20260504021204 | 78 | 202 | 5.2 | 11.3 | 0.00 | 0.00 | 0.00 | 21 | 994.0 |
| 20260504020204 | 77 | 202 | 5.2 | 11.3 | 0.00 | 0.00 | 0.00 | 21 | 994.0 |
| 20260504015704 | 78 | 202 | 5.2 | 11.3 | 0.00 | 0.00 | 0.00 | 21 | 994.0 |
| 20260504015204 | 78 | 202 | 5.2 | 11.3 | 0.00 | 0.00 | 0.00 | 21 | 994.0 |
| 20260504014704 | 78 | 202 | 5.2 | 11.3 | 0.00 | 0.00 | 0.00 | 21 | 994.0 |
| 20260504014204 | 78 | 202 | 5.2 | 11.3 | 0.00 | 0.00 | 0.00 | 21 | 994.0 |
| 20260504013704 | 79 | 202 | 5.2 | 11.3 | 0.00 | 0.00 | 0.00 | 21 | 994.0 |
| 20260504013205 | 78 | 202 | 5.2 | 11.3 | 0.00 | 0.00 | 0.00 | 21 | 994.0 |
| 20260504012704 | 79 | 202 | 5.2 | 11.3 | 0.00 | 0.00 | 0.00 | 22 | 994.8 |
| 20260504012205 | 79 | 202 | 5.2 | 11.3 | 0.00 | 0.00 | 0.00 | 22 | 995.0 |
| 20260504011204 | 78 | 202 | 5.2 | 11.3 | 0.00 | 0.00 | 0.00 | 23 | 995.0 |
| 20260504010704 | 78 | 202 | 5.2 | 11.3 | 0.00 | 0.00 | 0.00 | 24 | 995.0 |
| 20260504010203 | 77 | 202 | 5.2 | 11.3 | 0.00 | 0.00 | 0.00 | 26 | 995.0 |
| 20260504005703 | 77 | 202 | 5.2 | 11.3 | 0.00 | 0.00 | 0.00 | 27 | 995.0 |
| 20260504005204 | 77 | 202 | 5.2 | 11.3 | 0.00 | 0.00 | 0.00 | 26 | 995.0 |
| 20260504004705 | 78 | 202 | 5.2 | 11.3 | 0.00 | 0.00 | 0.00 | 24 | 995.0 |
| 20260504004204 | 78 | 202 | 5.2 | 11.3 | 0.00 | 0.00 | 0.00 | 25 | 995.0 |
| 20260504003704 | 78 | 202 | 4.3 | 10.4 | 0.00 | 0.00 | 0.00 | 26 | 995.0 |
| 20260504002704 | 77 | 180 | 4.3 | 5.2 | 0.00 | 0.00 | 0.00 | 30 | 995.0 |
| 20260504002204 | 77 | 180 | 4.3 | 5.2 | 0.00 | 0.00 | 0.00 | 31 | 995.0 |
| 20260504001704 | 76 | 180 | 4.3 | 5.2 | 0.00 | 0.00 | 0.00 | 33 | 995.0 |
| 20260504001204 | 76 | 180 | 4.3 | 5.2 | 0.00 | 0.00 | 0.00 | 34 | 995.0 |
| 20260504000704 | 75 | 180 | 4.3 | 5.2 | 0.00 | 0.00 | 0.00 | 36 | 995.0 |
| 20260504000204 | 75 | 180 | 4.3 | 5.2 | 0.00 | 0.00 | 0.00 | 39 | 995.0 |
| 20260503235704 | 75 | 180 | 4.3 | 5.2 | 0.00 | 0.00 | 0.00 | 39 | 995.8 |
| 20260503235204 | 76 | 180 | 4.3 | 5.2 | 0.00 | 0.00 | 0.00 | 41 | 996.0 |
| 20260503234704 | 75 | 180 | 4.3 | 5.2 | 0.00 | 0.00 | 0.00 | 42 | 996.0 |
| 20260503234204 | 75 | 180 | 4.3 | 5.2 | 0.00 | 0.00 | 0.00 | 45 | 996.0 |
| 20260503233705 | 75 | 180 | 4.3 | 5.2 | 0.00 | 0.00 | 0.00 | 44 | 996.0 |
| 20260503232705 | 77 | 180 | 4.3 | 5.2 | 0.00 | 0.00 | 0.00 | 44 | 995.3 |
| 20260503232203 | 76 | 180 | 4.3 | 5.2 | 0.00 | 0.00 | 0.00 | 47 | 995.0 |
| 20260503231703 | 76 | 180 | 4.3 | 5.2 | 0.00 | 0.00 | 0.00 | 49 | 995.0 |
| 20260503230704 | 74 | 180 | 4.3 | 5.2 | 0.00 | 0.00 | 0.00 | 51 | 996.0 |
| 20260503230205 | 75 | 180 | 4.3 | 5.2 | 0.00 | 0.00 | 0.00 | 51 | 996.0 |
| 20260503225704 | 74 | 180 | 4.3 | 5.2 | 0.00 | 0.00 | 0.00 | 51 | 995.3 |
| 20260503225204 | 74 | 180 | 4.3 | 5.2 | 0.00 | 0.00 | 0.00 | 52 | 995.0 |
| 20260503224704 | 74 | 180 | 4.3 | 5.2 | 0.00 | 0.00 | 0.00 | 53 | 995.0 |
| 20260503224204 | 74 | 180 | 4.3 | 7.8 | 0.00 | 0.00 | 0.00 | 55 | 995.8 |
| 20260503223204 | 73 | 202 | 5.2 | 7.0 | 0.00 | 0.00 | 0.00 | 71 | 996.0 |
| 20260503222705 | 73 | 247 | 5.2 | 7.0 | 0.00 | 0.00 | 0.00 | 71 | 996.0 |
| 20260503222204 | 73 | 163 | 4.3 | 8.7 | 0.00 | 0.00 | 0.00 | 71 | 996.0 |
| 20260503221704 | 73 | 222 | 4.3 | 11.3 | 0.00 | 0.00 | 0.00 | 71 | 996.0 |
| 20260503221203 | 73 | 211 | 4.3 | 7.8 | 0.00 | 0.00 | 0.00 | 74 | 996.0 |
| 20260503220704 | 73 | 220 | 5.2 | 7.0 | 0.00 | 0.00 | 0.00 | 78 | 996.0 |
| 20260503220204 | 73 | 224 | 3.5 | 7.0 | 0.00 | 0.00 | 0.00 | 78 | 996.0 |
| 20260503215704 | 73 | 266 | 5.2 | 8.7 | 0.00 | 0.00 | 0.00 | 78 | 996.7 |
| 20260503215205 | 73 | 158 | 5.2 | 8.7 | 0.00 | 0.00 | 0.00 | 78 | 997.0 |
| 20260503214704 | 73 | 198 | 4.3 | 8.7 | 0.00 | 0.00 | 0.00 | 79 | 997.0 |
| 20260503214204 | 73 | 224 | 5.2 | 10.4 | 0.00 | 0.00 | 0.00 | 80 | 996.3 |
| 20260503213704 | 73 | 214 | 5.2 | 12.2 | 0.00 | 0.00 | 0.00 | 80 | 996.0 |
| 20260503213203 | 73 | 230 | 5.2 | 8.7 | 0.00 | 0.00 | 0.00 | 81 | 996.0 |
| 20260503212704 | 73 | 214 | 7.0 | 11.3 | 0.00 | 0.00 | 0.00 | 82 | 996.0 |
| 20260503211204 | 74 | 192 | 7.8 | 14.8 | 0.00 | 0.00 | 0.00 | 87 | 996.0 |
| 20260503210204 | 75 | 247 | 7.0 | 13.0 | 0.00 | 0.00 | 0.00 | 88 | 996.0 |
| 20260503205204 | 75 | 182 | 10.4 | 14.8 | 0.00 | 0.00 | 0.00 | 88 | 995.0 |
| 20260503204704 | 75 | 218 | 11.3 | 14.8 | 0.00 | 0.00 | 0.00 | 88 | 995.0 |
| 20260503204205 | 75 | 198 | 13.0 | 24.3 | 0.00 | 0.00 | 0.00 | 87 | 995.0 |
| 20260503203704 | 75 | 236 | 13.9 | 15.6 | 0.00 | 0.00 | 0.00 | 88 | 995.0 |
| 20260503203204 | 75 | 240 | 11.3 | 18.2 | 0.00 | 0.00 | 0.00 | 85 | 995.0 |
| 20260503202204 | 76 | 209 | 11.3 | 18.2 | 0.00 | 0.00 | 0.00 | 83 | 994.0 |
| 20260503201703 | 76 | 200 | 13.9 | 18.2 | 0.00 | 0.00 | 0.00 | 84 | 994.0 |
| 20260503201204 | 76 | 219 | 10.4 | 19.1 | 0.00 | 0.00 | 0.00 | 84 | 994.8 |
| 20260503200203 | 76 | 270 | 11.3 | 20.9 | 0.00 | 0.00 | 0.00 | 88 | 995.0 |
| 20260503195704 | 75 | 322 | 8.7 | 15.6 | 0.00 | 0.00 | 0.00 | 90 | 995.0 |
| 20260503194704 | 75 | 115 | 12.2 | 24.3 | 0.00 | 0.00 | 0.00 | 93 | 995.0 |
| 20260503193704 | 75 | 212 | 10.4 | 22.6 | 0.00 | 0.00 | 0.00 | 91 | 995.0 |
| 20260503191704 | 75 | 196 | 7.8 | 14.8 | 0.00 | 0.00 | 0.00 | 86 | 996.0 |
| 20260503191203 | 75 | 163 | 8.7 | 19.1 | 0.00 | 0.00 | 0.00 | 80 | 996.0 |
| 20260503190704 | 75 | 227 | 7.8 | 13.9 | 0.00 | 0.00 | 0.00 | 80 | 996.0 |
| 20260503190204 | 75 | 224 | 7.8 | 12.2 | 0.00 | 0.00 | 0.00 | 82 | 996.0 |
| 20260503185705 | 75 | 196 | 8.7 | 15.6 | 0.00 | 0.00 | 0.00 | 83 | 995.3 |
| 20260503184704 | 75 | 186 | 8.7 | 14.8 | 0.00 | 0.00 | 0.00 | 82 | 995.0 |
| 20260503184203 | 75 | 182 | 7.8 | 12.2 | 0.00 | 0.00 | 0.00 | 82 | 996.5 |
| 20260503183703 | 75 | 236 | 8.7 | 19.1 | 0.00 | 0.00 | 0.00 | 83 | 997.0 |
| 20260503183204 | 74 | 189 | 7.8 | 14.8 | 0.00 | 0.00 | 0.00 | 85 | 997.0 |
| 20260503182704 | 74 | 202 | 7.0 | 15.6 | 0.00 | 0.00 | 0.00 | 86 | 996.3 |
| 20260503182205 | 74 | 234 | 10.4 | 18.2 | 0.00 | 0.00 | 0.00 | 86 | 996.0 |
| 20260503181704 | 75 | 210 | 8.7 | 20.9 | 0.00 | 0.00 | 0.00 | 84 | 996.0 |
| 20260503181204 | 74 | 236 | 7.8 | 13.0 | 0.00 | 0.00 | 0.00 | 85 | 996.8 |
| 20260503180704 | 74 | 160 | 7.8 | 13.9 | 0.00 | 0.00 | 0.00 | 87 | 997.0 |
| 20260503175704 | 74 | 225 | 9.6 | 14.8 | 0.00 | 0.00 | 0.00 | 91 | 997.8 |
| 20260503175204 | 73 | 192 | 7.0 | 13.0 | 0.00 | 0.00 | 0.00 | 91 | 998.0 |
| 20260503174705 | 74 | 235 | 7.8 | 13.0 | 0.00 | 0.00 | 0.00 | 92 | 998.0 |
| 20260503174204 | 73 | 190 | 7.0 | 13.0 | 0.00 | 0.00 | 0.00 | 95 | 998.0 |
| 20260503173205 | 72 | 198 | 8.7 | 11.3 | 0.00 | 0.00 | 0.00 | 98 | 998.0 |
| 20260503172204 | 72 | 208 | 6.1 | 11.3 | 0.00 | 0.00 | 0.00 | 98 | 998.0 |
| 20260503171704 | 72 | 158 | 7.0 | 11.3 | 0.00 | 0.00 | 0.00 | 98 | 998.0 |
| 20260503170703 | 71 | 230 | 3.5 | 8.7 | 0.00 | 0.00 | 0.00 | 98 | 999.0 |
| 20260503170204 | 70 | 182 | 4.3 | 8.7 | 0.00 | 0.00 | 0.00 | 98 | 999.0 |